Weather History for Meridian NAS, MS

Change the Weather History Date:

Wednesday, February 27, 2013

  Actual Average Record
Temperature  
Mean Temperature 47 °F -  
Max Temperature 62 °F 60 °F 81 °F (2011)
Min Temperature 32 °F 42 °F 21 °F (2014)
Degree Days  
Heating Degree Days 18    
Moisture  
Dew Point 33 °F    
Average Humidity 64    
Maximum Humidity 92    
Minimum Humidity 34    
Precipitation  
Precipitation 0.00 in - - ()
Sea Level Pressure  
Sea Level Pressure 30.00 in    
Wind  
Wind Speed 5 mph (West)    
Max Wind Speed 17 mph    
Max Gust Speed 25 mph    
Visibility 10 miles    
Events      
Averages and records for this station are not official NWS values.
T = Trace of Precipitation, MM = Missing Value Source: NWS Daily Summary

Daily Weather History Graph

Daily Weather History Graph

Search for Another Location

Airport:

Trip Planner

Search our weather history database for the weather conditions in past years. The results will help you decide how hot, cold, wet, or windy it might be!

Date:

Astronomy

Feb. 27, 2013 Rise Set
Actual Time 6:23 AM CST 5:50 PM CST
Civil Twilight 5:59 AM CST 6:15 PM CST
Nautical Twilight 5:30 AM CST 6:43 PM CST
Astronomical Twilight 5:02 AM CST 7:12 PM CST
Moon 8:00 PM CST (2/27) 7:08 AM CST (2/27)
Length of Visible Light 12h 15m
Length of Day
11h 26m
Waning Gibbous, 96% of the Moon is Illuminated
Feb 27
Waning Gibbous
Mar 4
Last Quarter
Mar 11
New
Mar 19
First Quarter
Mar 27
Full

Hourly Weather History & Observations

Time (CST) Temp. Windchill Dew Point Humidity Pressure Visibility Wind Dir Wind Speed Gust Speed Precip Events Conditions
12:56 AM 39.0 °F 35.7 °F 34.0 °F 82% 29.96 in 10.0 mi SW 4.6 mph - N/A   Clear
1:56 AM 37.9 °F 34.4 °F 33.1 °F 83% 29.96 in 10.0 mi SW 4.6 mph - N/A   Clear
2:56 AM 35.1 °F - 32.0 °F 89% 29.96 in 9.0 mi Calm Calm - N/A   Clear
3:56 AM 33.1 °F 30.0 °F 30.9 °F 92% 29.97 in 9.0 mi WSW 3.5 mph - N/A   Clear
4:56 AM 34.0 °F - 30.9 °F 89% 29.97 in 10.0 mi Calm Calm - N/A   Clear
5:56 AM 32.0 °F - 30.0 °F 92% 29.98 in 9.0 mi Calm Calm - N/A   Scattered Clouds
6:56 AM 32.0 °F - 30.0 °F 92% 29.99 in 6.0 mi Calm Calm - N/A   Scattered Clouds
7:56 AM 39.9 °F - 34.0 °F 79% 30.01 in 10.0 mi Calm Calm - N/A   Scattered Clouds
8:56 AM 44.1 °F 41.5 °F 34.0 °F 68% 30.03 in 10.0 mi West 4.6 mph - N/A   Scattered Clouds
9:56 AM 50.0 °F - 35.1 °F 57% 30.03 in 10.0 mi West 8.1 mph - N/A   Partly Cloudy
10:56 AM 53.1 °F - 34.0 °F 48% 30.03 in 10.0 mi SW 10.4 mph - N/A   Partly Cloudy
11:56 AM 57.0 °F - 34.0 °F 42% 30.01 in 10.0 mi WSW 10.4 mph 17.3 mph N/A   Partly Cloudy
12:56 PM 60.1 °F - 32.0 °F 35% 30.00 in 10.0 mi West 12.7 mph 23.0 mph N/A   Clear
1:56 PM 61.0 °F - 33.1 °F 35% 29.98 in 10.0 mi WSW 16.1 mph 20.7 mph N/A   Partly Cloudy
2:56 PM 61.0 °F - 32.0 °F 34% 29.96 in 10.0 mi West 10.4 mph 19.6 mph N/A   Clear
3:56 PM 62.1 °F - 33.1 °F 34% 29.96 in 10.0 mi West 12.7 mph - N/A   Partly Cloudy
4:56 PM 59.0 °F - 32.0 °F 36% 29.97 in 10.0 mi West 17.3 mph 25.3 mph N/A   Partly Cloudy
5:56 PM 55.9 °F - 34.0 °F 44% 29.99 in 10.0 mi West 5.8 mph - N/A   Mostly Cloudy
6:56 PM 53.1 °F - 35.1 °F 50% 30.00 in 10.0 mi WNW 10.4 mph - N/A   Mostly Cloudy
7:56 PM 48.9 °F - 35.1 °F 59% 30.01 in 10.0 mi WNW 5.8 mph - N/A   Partly Cloudy
8:56 PM 46.0 °F 43.9 °F 35.1 °F 66% 30.02 in 10.0 mi WNW 4.6 mph - N/A   Partly Cloudy
9:56 PM 43.0 °F 39.5 °F 36.0 °F 76% 30.04 in 10.0 mi NNW 5.8 mph - N/A   Clear
10:56 PM 42.1 °F - 36.0 °F 79% 30.04 in 10.0 mi Calm Calm - N/A   Clear
11:56 PM 39.9 °F 36.7 °F 35.1 °F 83% 30.05 in 10.0 mi NNW 4.6 mph - N/A   Clear